BCS2MA EDDH-EDDV

Flight info

Callsign BCS2MA
Flight time 0h 22m
Altitude 17000
Route IDEKO7G IDEKO N850 NIE NIE1R
Aircraft A306/H-SDE3FGHIRWY/LB1

Departure

Time 2026-05-05 08:47
Airport Hamburg Helmut Schmidt Airport (EDDH)

Arrival

Time 2026-05-05 09:10
Airport Hannover Airport (EDDV)
Time Latitude Longitude Altitude Speed Heading
2026-05-05 08:22 53.62521 10.00418 50 ft 0 kts 243°
2026-05-05 08:41 53.62518 10.00406 54 ft 2 kts 243°
2026-05-05 08:42 53.62520 10.00355 53 ft 6 kts 301°
2026-05-05 08:42 53.62573 10.00303 51 ft 11 kts 334°
2026-05-05 08:42 53.62660 10.00230 49 ft 16 kts 333°
2026-05-05 08:42 53.62695 10.00200 49 ft 0 kts 333°
2026-05-05 08:44 53.62716 10.00181 51 ft 7 kts 333°
2026-05-05 08:45 53.62777 10.00129 53 ft 13 kts 333°
2026-05-05 08:45 53.62849 10.00048 50 ft 11 kts 300°
2026-05-05 08:45 53.62848 9.99971 49 ft 0 kts 244°
2026-05-05 08:46 53.62834 9.99923 51 ft 11 kts 243°
2026-05-05 08:46 53.62831 9.99780 49 ft 12 kts 320°
2026-05-05 08:46 53.62909 9.99708 47 ft 21 kts 333°
2026-05-05 08:46 53.63242 9.99420 49 ft 88 kts 333°
2026-05-05 08:47 53.63969 9.98792 50 ft 145 kts 333°
2026-05-05 08:47 53.64974 9.97921 411 ft 167 kts 334°
2026-05-05 08:47 53.65997 9.97038 1333 ft 168 kts 336°
2026-05-05 08:47 53.67141 9.96064 1840 ft 199 kts 336°
2026-05-05 08:48 53.68430 9.94981 2593 ft 212 kts 335°
2026-05-05 08:48 53.69749 9.93861 3476 ft 217 kts 333°
2026-05-05 08:48 53.71110 9.92703 4284 ft 221 kts 332°
2026-05-05 08:48 53.72491 9.91520 4925 ft 224 kts 330°
2026-05-05 08:49 53.73665 9.89768 5551 ft 235 kts 299°
2026-05-05 08:49 53.73988 9.86996 6073 ft 256 kts 261°
2026-05-05 08:49 53.73175 9.84310 6896 ft 265 kts 226°
2026-05-05 08:49 53.71749 9.82325 7920 ft 267 kts 215°
2026-05-05 08:50 53.70102 9.80841 8929 ft 271 kts 204°
2026-05-05 08:50 53.68319 9.79757 9849 ft 275 kts 196°
2026-05-05 08:50 53.66390 9.79314 10454 ft 290 kts 181°
2026-05-05 08:50 53.64305 9.79678 10818 ft 312 kts 172°
2026-05-05 08:51 53.62104 9.80366 11113 ft 331 kts 171°
2026-05-05 08:51 53.59783 9.81157 11430 ft 349 kts 170°
2026-05-05 08:51 53.57345 9.81996 11747 ft 365 kts 169°
2026-05-05 08:51 53.54805 9.82872 12140 ft 378 kts 169°
2026-05-05 08:52 53.52200 9.83769 12686 ft 385 kts 169°
2026-05-05 08:52 53.49560 9.84677 13280 ft 390 kts 170°
2026-05-05 08:52 53.46890 9.85590 13893 ft 394 kts 169°
2026-05-05 08:52 53.44188 9.86512 14452 ft 398 kts 170°
2026-05-05 08:53 53.41464 9.87440 14982 ft 401 kts 170°
2026-05-05 08:53 53.38758 9.88362 15543 ft 404 kts 170°
2026-05-05 08:53 53.35991 9.89302 16090 ft 407 kts 170°
2026-05-05 08:53 53.33204 9.90248 16630 ft 410 kts 170°
2026-05-05 08:54 53.30397 9.91200 16887 ft 413 kts 170°
2026-05-05 08:54 53.27580 9.92155 16918 ft 414 kts 170°
2026-05-05 08:54 53.24751 9.93114 16919 ft 415 kts 170°
2026-05-05 08:54 53.21923 9.94070 16919 ft 415 kts 170°
2026-05-05 08:55 53.19096 9.95024 16921 ft 415 kts 170°
2026-05-05 08:55 53.17181 9.95671 16918 ft 415 kts 170°
2026-05-05 08:55 53.13430 9.96935 16916 ft 415 kts 170°
2026-05-05 08:55 53.11522 9.97577 16735 ft 409 kts 170°
2026-05-05 08:56 53.08768 9.98505 15971 ft 399 kts 170°
2026-05-05 08:56 53.06117 9.99398 15502 ft 377 kts 170°
2026-05-05 08:56 53.03623 10.00238 15110 ft 355 kts 170°
2026-05-05 08:56 53.01266 10.01029 14777 ft 336 kts 170°
2026-05-05 08:57 52.99061 10.01767 14451 ft 320 kts 170°
2026-05-05 08:57 52.96919 10.02482 13969 ft 311 kts 170°
2026-05-05 08:57 52.94817 10.03183 13378 ft 305 kts 170°
2026-05-05 08:57 52.92750 10.03871 12746 ft 302 kts 171°
2026-05-05 08:58 52.90700 10.04553 12117 ft 300 kts 171°
2026-05-05 08:58 52.88661 10.05231 11672 ft 297 kts 170°
2026-05-05 08:58 52.86647 10.05901 11147 ft 294 kts 170°
2026-05-05 08:58 52.84647 10.06568 10629 ft 292 kts 171°
2026-05-05 08:59 52.82666 10.07225 10177 ft 290 kts 171°
2026-05-05 08:59 52.80693 10.07879 9944 ft 288 kts 171°
2026-05-05 08:59 52.78730 10.08530 9910 ft 288 kts 171°
2026-05-05 08:59 52.76767 10.09179 9910 ft 288 kts 171°
2026-05-05 09:00 52.74807 10.09877 9904 ft 289 kts 165°
2026-05-05 09:00 52.73048 10.11498 9907 ft 295 kts 140°
2026-05-05 09:00 52.71857 10.14255 9905 ft 299 kts 114°
2026-05-05 09:00 52.70792 10.17184 9575 ft 299 kts 135°
2026-05-05 09:01 52.69186 10.19326 7685 ft 324 kts 159°
2026-05-05 09:01 52.67041 10.19906 7343 ft 308 kts 189°
2026-05-05 09:01 52.64949 10.19146 6750 ft 307 kts 195°
2026-05-05 09:01 52.62908 10.18433 6378 ft 299 kts 191°
2026-05-05 09:02 52.60823 10.18058 5672 ft 303 kts 188°
2026-05-05 09:02 52.58721 10.17684 4860 ft 305 kts 188°
2026-05-05 09:02 52.56599 10.17323 3961 ft 303 kts 185°
2026-05-05 09:02 52.54538 10.17133 3335 ft 290 kts 184°
2026-05-05 09:03 52.52592 10.16981 2895 ft 265 kts 184°
2026-05-05 09:03 52.50882 10.16841 2822 ft 232 kts 186°
2026-05-05 09:03 52.49361 10.16218 2709 ft 225 kts 205°
2026-05-05 09:03 52.48075 10.14787 2746 ft 225 kts 225°
2026-05-05 09:04 52.47161 10.12737 2873 ft 223 kts 244°
2026-05-05 09:04 52.46676 10.10323 2902 ft 222 kts 259°
2026-05-05 09:04 52.46617 10.07785 3034 ft 227 kts 275°
2026-05-05 09:04 52.46793 10.05240 2874 ft 221 kts 268°
2026-05-05 09:05 52.46528 10.02762 2658 ft 219 kts 255°
2026-05-05 09:05 52.46159 10.00482 2737 ft 191 kts 255°
2026-05-05 09:05 52.45927 9.98444 2721 ft 175 kts 271°
2026-05-05 09:05 52.46055 9.96514 2817 ft 169 kts 273°
2026-05-05 09:06 52.46109 9.94568 2962 ft 172 kts 272°
2026-05-05 09:06 52.46178 9.92590 2849 ft 172 kts 273°
2026-05-05 09:06 52.46200 9.90643 2760 ft 174 kts 270°
2026-05-05 09:06 52.46219 9.88645 2561 ft 175 kts 270°
2026-05-05 09:07 52.46263 9.86620 2172 ft 181 kts 272°
2026-05-05 09:07 52.46334 9.84560 1895 ft 178 kts 274°
2026-05-05 09:07 52.46402 9.82601 1629 ft 163 kts 274°
2026-05-05 09:07 52.46447 9.80856 1463 ft 147 kts 274°
2026-05-05 09:08 52.46483 9.79190 1331 ft 147 kts 272°
2026-05-05 09:08 52.46506 9.77524 1157 ft 146 kts 271°
2026-05-05 09:08 52.46537 9.75863 920 ft 144 kts 274°
2026-05-05 09:08 52.46598 9.74255 732 ft 142 kts 272°
2026-05-05 09:09 52.46615 9.72653 544 ft 139 kts 271°
2026-05-05 09:09 52.46665 9.71063 378 ft 145 kts 268°
2026-05-05 09:09 52.46705 9.69479 206 ft 129 kts 269°
2026-05-05 09:09 52.46742 9.68252 192 ft 80 kts 273°
2026-05-05 09:10 52.46764 9.67467 190 ft 61 kts 270°
2026-05-05 09:10 52.46722 9.66979 207 ft 28 kts 253°
2026-05-05 09:10 52.46672 9.66720 210 ft 14 kts 244°
2026-05-05 09:10 52.46602 9.66670 203 ft 10 kts 166°
2026-05-05 09:11 52.46562 9.66747 209 ft 9 kts 104°
2026-05-05 09:11 52.46558 9.66880 197 ft 15 kts 90°
2026-05-05 09:11 52.46551 9.67081 197 ft 21 kts 93°
2026-05-05 09:11 52.46543 9.67347 202 ft 26 kts 92°
2026-05-05 09:12 52.46536 9.67664 207 ft 28 kts 92°
2026-05-05 09:12 52.46526 9.67972 199 ft 26 kts 94°
2026-05-05 09:12 52.46472 9.68232 208 ft 24 kts 137°
2026-05-05 09:12 52.46347 9.68391 197 ft 22 kts 143°
2026-05-05 09:13 52.46227 9.68538 208 ft 21 kts 143°
2026-05-05 09:13 52.46107 9.68690 207 ft 21 kts 142°
2026-05-05 09:13 52.45992 9.68833 208 ft 20 kts 144°
2026-05-05 09:13 52.45886 9.68965 210 ft 16 kts 143°
2026-05-05 09:14 52.45796 9.68987 205 ft 13 kts 219°
2026-05-05 09:14 52.45780 9.68863 197 ft 11 kts 270°
2026-05-05 09:14 52.45783 9.68745 204 ft 10 kts 274°
2026-05-05 09:14 52.45786 9.68641 197 ft 9 kts 272°
2026-05-05 09:15 52.45798 9.68559 199 ft 6 kts 313°
2026-05-05 09:15 52.45822 9.68552 204 ft 0 kts 359°
2026-05-05 09:15 52.45832 9.68552 206 ft 5 kts 359°
2026-05-05 09:15 52.45862 9.68552 204 ft 0 kts